Dewpoint
33 32 43 48 52 53 53 54 54 54 55 55 55 56 57 58 58 59 61 62 64 65 64 63 64 66 69 70 69 68 70 69 68 68 68 67 68 69 68 68 68 64 69
29 27 40 47 50 51 52 52 53 53 53 53 54 54 55 56 56 57 58 60 61 62 64 65 63 63 65 67 70 69 69 69 69 68 67 67 68 69 69 68 67 64 66
24 22 26 45 49 50 51 51 52 52 52 53 53 53 54 54 55 56 56 57 58 59 60 62 64 62 62 63 65 69 69 69 69 69 68 64 61 68 68 68 68 67 67
19 20 23 43 47 49 49 50 51 51 52 52 52 53 54 54 54 54 54 55 56 56 57 58 60 63 61 61 62 64 68 69 69 70 67 62 58 69 67 68 68 68 68
17 19 22 41 46 48 49 50 51 51 52 52 52 52 53 54 54 54 54 54 54 54 54 55 57 60 62 60 60 61 62 66 68 68 66 64 63 64 68 67 68 68 68
15 19 29 41 45 47 49 50 51 52 52 53 53 53 54 54 54 54 54 54 53 53 52 52 54 57 59 62 61 60 61 61 64 65 66 66 64 69 68 68 70 69 69
17 22 22 42 44 46 48 49 50 51 52 54 53 53 54 54 53 54 53 53 53 53 51 52 51 54 57 59 61 62 61 60 57 62 65 67 67 69 67 67 68 69 69
20 24 26 38 44 46 47 49 50 52 52 52 52 52 53 53 53 52 52 51 51 52 52 51 51 52 54 56 58 61 61 59 57 58 63 66 68 68 67 67 68 69 69
21 23 26 30 37 44 46 47 48 50 49 50 50 50 50 50 50 51 51 50 50 50 50 50 49 50 52 53 56 57 59 58 53 54 57 61 65 64 66 68 68 68 69
20 23 26 30 32 36 38 45 47 47 47 48 48 48 48 47 45 44 44 44 46 47 48 50 50 50 51 50 52 55 57 56 51 51 49 52 56 57 63 66 67 68 68
20 25 28 32 33 36 37 38 43 45 46 46 44 45 43 38 38 39 42 45 47 49 50 51 51 50 50 49 50 51 54 51 50 48 45 51 46 56 60 62 65 65 67
23 26 29 33 35 36 35 38 37 36 37 37 38 37 38 37 38 41 43 44 45 46 48 48 49 50 49 43 39 43 42 46 50 47 43 46 44 50 57 61 60 63 65
25 29 31 34 36 35 34 35 36 35 36 38 37 37 38 37 38 38 39 39 39 42 37 37 36 35 35 35 33 27 29 35 46 45 47 47 44 48 50 56 59 58 63
24 29 31 33 31 32 33 33 33 33 36 35 37 39 39 40 39 38 38 38 39 39 38 37 37 35 33 31 29 27 26 29 36 42 45 46 44 47 48 51 56 56 57
24 28 29 31 31 31 31 32 32 32 33 35 37 39 40 41 40 40 39 38 37 38 39 38 38 36 34 32 31 28 24 23 26 33 41 50 46 47 48 48 51 51 54
22 26 28 28 30 30 30 32 32 32 33 34 36 39 39 39 40 40 40 41 40 39 38 38 38 38 36 33 32 30 27 25 25 30 36 44 48 47 47 47 49 48 48
25 26 27 28 29 30 30 31 33 33 33 34 36 36 36 39 39 40 41 42 41 40 39 38 38 38 38 36 33 32 31 27 28 28 34 39 45 48 46 46 47 44 45
26 25 26 27 26 28 29 30 31 32 35 35 35 36 37 39 39 41 42 42 43 42 42 40 38 38 38 38 35 33 32 29 26 27 34 37 40 40 46 46 45 44 44
26 26 27 26 26 28 29 30 31 32 34 36 36 37 38 38 38 41 42 43 43 43 42 41 39 38 38 37 37 35 34 33 32 26 31 38 42 43 43 47 45 43 42
26 26 26 27 28 30 31 31 32 32 34 36 36 36 37 39 40 41 42 42 42 42 42 43 41 40 38 37 35 36 36 36 36 35 33 33 40 44 45 45 46 41 44
25 27 27 28 28 29 30 30 31 32 33 35 35 37 36 40 41 41 42 42 41 42 41 42 42 40 39 37 36 36 35 35 33 34 34 35 37 40 42 42 43 43 41
25 27 28 29 30 29 31 31 32 32 34 35 36 36 36 39 40 40 41 41 42 43 41 42 42 41 40 38 35 34 33 34 35 33 34 33 34 37 38 38 39 39 40
26 28 28 29 29 30 31 32 33 34 34 34 34 36 38 37 36 39 41 41 41 42 41 42 42 41 39 39 37 34 33 30 33 36 34 35 34 36 38 38 38 37 34
27 29 28 29 29 30 31 31 31 32 32 32 34 36 37 36 36 37 39 40 41 42 42 41 42 42 41 39 40 36 34 34 32 30 34 34 34 33 37 39 37 35 33
28 28 29 30 30 32 31 32 32 32 31 32 34 35 35 36 36 37 38 39 40 41 42 40 41 43 42 40 39 37 35 35 33 32 30 30 33 33 36 38 38 36 34
28 29 30 30 30 32 32 33 33 32 31 31 33 34 34 36 38 37 38 40 40 40 42 42 42 43 42 41 41 38 37 35 34 32 32 31 32 35 36 38 38 38 40
Lifted_Index
17 18 17 16 15 14 14 13 13 13 13 12 12 11 11 10 10 9 8 7 5 5 4 4 3 3 1 0 -0 -0 -0 -0 0 1 1 2 1 1 1 2 2 3 3
18 18 18 17 15 15 14 14 14 13 13 13 13 12 11 11 10 10 9 8 7 6 5 4 4 3 2 1 0 0 -0 -0 0 1 1 2 2 2 1 2 2 2 3
18 19 18 17 16 15 15 14 14 14 14 13 13 13 12 12 11 11 10 10 9 8 7 6 5 4 3 2 2 1 0 -0 -0 -0 1 2 3 2 2 2 2 2 2
18 19 19 18 16 16 15 15 14 14 14 13 13 12 12 12 11 11 11 11 10 10 9 8 7 5 4 4 3 2 1 0 -0 -0 0 2 2 2 1 2 2 2 2
19 19 19 18 17 16 15 15 14 14 14 13 12 12 12 11 11 11 11 11 11 11 11 10 9 7 6 5 4 3 2 1 0 -0 -0 1 1 1 1 1 1 1 1
19 19 18 18 17 16 16 15 15 14 13 13 12 12 12 11 11 11 11 11 11 11 11 11 11 9 7 6 5 4 4 3 2 1 0 -0 0 0 0 0 1 1 1
18 18 18 18 17 16 16 15 15 14 13 13 13 12 12 12 11 11 11 11 11 11 11 12 12 10 9 7 6 5 5 4 3 2 0 -0 -0 -0 -0 -0 -0 -0 -0
18 18 18 18 17 16 16 15 15 14 14 13 13 13 13 12 12 12 12 12 11 11 12 12 12 11 10 9 7 6 6 5 4 2 1 0 -0 -0 -0 -0 -0 -1 -1
18 18 18 18 17 17 16 16 15 15 14 14 14 13 13 13 13 13 13 13 13 13 13 12 12 12 11 10 9 7 7 6 5 3 3 2 1 1 0 -0 -1 -1 -1
18 18 18 17 17 17 16 16 15 15 15 14 14 14 14 14 14 14 14 14 14 14 13 13 12 12 11 11 10 9 8 7 6 6 5 5 4 2 1 1 0 -0 -1
17 17 17 16 16 16 15 15 15 15 15 14 14 14 14 14 14 14 14 14 14 14 13 13 12 12 12 12 12 11 10 8 7 8 8 8 6 4 3 2 1 0 0
16 16 15 15 14 14 14 14 14 14 14 14 13 13 14 14 14 14 14 13 13 13 13 13 13 13 13 13 13 13 12 10 8 8 10 10 9 7 5 3 2 2 1
15 14 14 13 13 13 13 13 13 13 13 13 13 13 13 13 13 13 14 13 13 12 12 12 13 13 14 15 15 15 14 12 10 9 10 11 11 10 8 5 4 3 2
14 13 13 12 13 13 12 12 12 12 12 13 13 13 13 13 13 13 14 14 13 13 12 12 12 12 13 14 15 15 15 14 12 11 10 11 11 11 10 8 6 5 4
13 13 12 13 13 13 13 13 13 13 13 13 13 13 13 13 13 14 14 14 14 14 13 12 11 11 11 12 13 14 15 15 14 13 11 11 11 11 11 9 8 7 6
13 12 12 13 13 13 13 13 13 13 13 13 13 13 13 13 13 13 14 14 14 14 14 13 12 11 11 11 11 12 13 14 14 14 12 11 11 11 11 10 10 9 9
12 12 12 12 13 13 13 13 12 12 12 13 13 13 13 13 13 13 13 13 13 14 14 14 13 12 12 11 11 11 11 12 13 13 12 11 11 11 11 11 11 11 11
12 12 12 13 13 13 13 13 12 12 12 13 13 13 13 13 13 13 13 13 13 13 13 14 14 13 13 12 11 11 11 11 12 12 11 11 10 10 11 11 12 12 12
12 13 13 13 13 13 13 13 13 13 13 13 13 12 12 12 12 12 12 12 12 13 13 13 14 14 14 13 12 12 11 11 12 12 11 10 9 9 9 10 11 12 12
13 13 13 13 13 13 13 13 13 13 13 13 12 12 12 12 12 12 12 12 12 12 12 12 13 13 14 14 13 12 12 11 11 11 11 10 9 9 9 9 10 11 11
13 13 13 13 13 13 13 13 13 13 12 12 12 12 12 12 11 11 11 11 11 11 11 12 12 13 13 13 13 13 12 11 11 11 11 10 10 9 9 9 9 10 10
13 13 13 13 13 13 13 13 13 12 12 12 12 12 11 11 11 10 10 10 10 10 11 11 11 11 12 12 13 12 11 10 10 10 10 10 10 9 9 9 9 10 10
13 14 13 13 13 13 13 13 12 12 12 12 12 11 10 10 10 9 9 8 9 9 10 10 10 10 11 11 12 11 11 10 10 9 10 10 10 9 9 9 9 10 10
14 14 13 13 13 13 13 12 12 12 12 12 11 10 10 9 9 8 7 7 7 8 8 9 9 10 10 10 10 11 11 10 9 9 9 9 9 9 9 8 9 9 10
14 14 13 13 13 13 12 12 12 12 12 11 11 10 9 9 8 7 7 7 7 7 7 8 9 9 9 9 10 10 10 10 10 9 8 8 9 8 8 8 8 9 9
14 14 13 13 13 12 12 12 12 12 12 11 10 10 9 8 7 7 7 7 7 6 7 7 8 8 9 9 9 9 10 10 10 9 9 8 8 8 8 7 7 8 9